Weather History for Westfield, MA

Change the Weather History Date:

Sunday, March 10, 2013

  Actual Average Record
Temperature  
Mean Temperature 38 °F -  
Max Temperature 51 °F 39 °F 68 °F (2006)
Min Temperature 24 °F 21 °F 1 °F (2005)
Degree Days  
Heating Degree Days 28    
Moisture  
Dew Point 27 °F    
Average Humidity 65    
Maximum Humidity 88    
Minimum Humidity 41    
Precipitation  
Precipitation 0.00 in - - ()
Sea Level Pressure  
Sea Level Pressure 30.34 in    
Wind  
Wind Speed 3 mph (South)    
Max Wind Speed 12 mph    
Max Gust Speed -    
Visibility 10 miles    
Events      
Averages and records for this station are not official NWS values.
T = Trace of Precipitation, MM = Missing Value Source: NWS Daily Summary

Daily Weather History Graph

Daily Weather History Graph

Search for Another Location

Airport:

Trip Planner

Search our weather history database for the weather conditions in past years. The results will help you decide how hot, cold, wet, or windy it might be!

Date:

Astronomy

Mar. 10, 2013 Rise Set
Actual Time 7:10 AM EDT 6:51 PM EDT
Civil Twilight 6:42 AM EDT 7:19 PM EDT
Nautical Twilight 6:10 AM EDT 7:52 PM EDT
Astronomical Twilight 5:37 AM EDT 8:25 PM EDT
Moon 6:09 AM EDT (3/10) 5:56 PM EDT (3/10)
Length of Visible Light 12h 36m
Length of Day
11h 40m
Waning Crescent, 2% of the Moon is Illuminated
Mar 10
Waning Crescent
Mar 11
New
Mar 19
First Quarter
Mar 27
Full
Apr 3
Last Quarter

Hourly Weather History & Observations

Time (EDT) Temp. Windchill Dew Point Humidity Pressure Visibility Wind Dir Wind Speed Gust Speed Precip Events Conditions
12:53 AM 28.9 °F - 23.0 °F 78% 30.36 in 10.0 mi Calm Calm - N/A   Clear
1:53 AM 27.0 °F 21.6 °F 21.9 °F 81% 30.37 in 10.0 mi West 4.6 mph - N/A   Clear
3:53 AM 26.1 °F - 21.0 °F 81% 30.36 in 10.0 mi Calm Calm - N/A   Clear
4:53 AM 25.0 °F - 21.0 °F 85% 30.36 in 10.0 mi Calm Calm - N/A   Clear
5:53 AM 26.1 °F - 21.9 °F 84% 30.38 in 10.0 mi Calm Calm - N/A   Clear
6:53 AM 24.1 °F - 21.0 °F 88% 30.39 in 10.0 mi Calm Calm - N/A   Clear
7:53 AM 25.0 °F - 21.0 °F 85% 30.40 in 10.0 mi Calm Calm - N/A   Clear
8:53 AM 32.0 °F 28.7 °F 25.0 °F 75% 30.41 in 10.0 mi North 3.5 mph - N/A   Clear
9:53 AM 37.9 °F - 25.0 °F 60% 30.41 in 10.0 mi Calm Calm - N/A   Clear
10:53 AM 39.9 °F - 28.0 °F 63% 30.40 in 10.0 mi Calm Calm - N/A   Clear
11:53 AM 43.0 °F 39.5 °F 28.0 °F 56% 30.37 in 10.0 mi SE 5.8 mph - N/A   Clear
12:53 PM 44.1 °F 41.5 °F 28.0 °F 53% 30.37 in 10.0 mi South 4.6 mph - N/A   Clear
1:53 PM 46.9 °F - 28.0 °F 48% 30.34 in 10.0 mi Variable 3.5 mph - N/A   Clear
2:53 PM 48.9 °F - 28.9 °F 46% 30.32 in 10.0 mi Variable 5.8 mph - N/A   Clear
3:53 PM 50.0 °F - 28.0 °F 43% 30.31 in 10.0 mi SSE 9.2 mph - N/A   Clear
4:53 PM 51.1 °F - 28.0 °F 41% 30.29 in 10.0 mi South 9.2 mph - N/A   Clear
5:53 PM 50.0 °F - 28.0 °F 43% 30.28 in 10.0 mi SSE 8.1 mph - N/A   Clear
6:53 PM 48.0 °F - 28.0 °F 46% 30.29 in 10.0 mi South 9.2 mph - N/A   Clear
7:53 PM 46.0 °F 41.9 °F 32.0 °F 58% 30.30 in 10.0 mi South 8.1 mph - N/A   Clear
8:53 PM 43.0 °F 36.8 °F 30.9 °F 62% 30.30 in 10.0 mi South 11.5 mph - N/A   Overcast
9:53 PM 41.0 °F 35.8 °F 30.9 °F 67% 30.31 in 10.0 mi South 8.1 mph - N/A   Clear
10:53 PM 39.9 °F 35.1 °F 30.9 °F 70% 30.30 in 10.0 mi SSE 6.9 mph - N/A   Clear
11:53 PM 37.9 °F 31.5 °F 30.9 °F 76% 30.31 in 10.0 mi South 9.2 mph - N/A   Clear
12:53 AM 37.0 °F 31.0 °F 30.9 °F 79% 30.30 in 10.0 mi South 8.1 mph - N/A   Clear